Jonathan Swift

(30 November 1667 – 19 October 1745 / Dublin)

Stats

» Click to list general statistics » OR, select a date :

General Statistics

Visitors of the poet

Number of visitors of the poet’s mainpage in PoemHunter.Com

Attention : Numbers in this table does not indicate the total hits of poems of the poet, but indicates the hits of the poet’s main page.

Date Hits
07/21/2014 Monday 258
54%
07/20/2014 Sunday 260
54%
07/19/2014 Saturday 184
38%
07/18/2014 Friday 172
36%
07/17/2014 Thursday 153
32%
07/16/2014 Wednesday 296
62%
07/15/2014 Tuesday 280
59%
07/14/2014 Monday 294
62%
07/13/2014 Sunday 168
35%
07/12/2014 Saturday 284
60%
07/11/2014 Friday 473
100%
07/10/2014 Thursday 261
55%
07/09/2014 Wednesday 203
42%
07/08/2014 Tuesday 181
38%
07/07/2014 Monday 222
46%
07/06/2014 Sunday 235
49%
07/05/2014 Saturday 251
53%
07/04/2014 Friday 289
61%
07/03/2014 Thursday 185
39%
07/02/2014 Wednesday 171
36%

Reader rating & num.of MyPoemList’s

Click the captions of columns to change the order.

# Poem Title Submit Date Reader Rating Num.of MyPoemList’s
Rating Num.R.
1 Verses on the Death of Dr. Swift, D.S.P.D. 04/12/2010 5.1 49 0
2 To Lady Carteret 04/12/2010 5.4 65 0
3 To Quilca, A Country-House in no very good Repair 04/12/2010 5.4 72 0
4 To Stella On Her Birth-Day, 1721-2 04/12/2010 5.5 54 0
5 To Stella Visiting Me in My Sickness 04/12/2010 5.3 67 0
6 To Stella, Who Collected and Transcribed His Poems 04/12/2010 5.4 58 0
7 To Stella, Written On The Day Of Her Birth. March 13, 1723-4, But Not On The Subject, When I Was Sick In Bed 04/12/2010 5.6 43 0
8 Toland’s Invitation To Dismal To Dine With The Calve’s Head Club 04/12/2010 5.7 62 0
9 Twelve Articles 04/12/2010 4.6 71 0
10 The Place of the Damned 04/12/2010 5.5 22 0
11 The Progress Of Marriage 04/12/2010 5.4 43 0
12 The Progress of Poetry 04/12/2010 5.3 35 0
13 The Revolution At Market-Hill 04/12/2010 5.5 62 0
14 The Sick Lion and the Ass 04/12/2010 5.3 58 1
15 The Virtues Of Sid Hamet The Magician’s Rod 04/12/2010 5.4 56 0
16 The Windsor Prophecy 04/12/2010 5.6 74 0
17 The Beasts' Confession 04/12/2010 5.5 40 0
18 The Dean’s Answer 04/12/2010 5.1 53 0
19 The Dean’s Reasons For Not Building At Drapier’s-Hill 04/12/2010 5.5 40 0
20 The Fable Of Midas 04/12/2010 5.5 20 0
21 The Fagot 04/12/2010 5.5 42 0
22 The Famous Speech-Maker Of England Or Baron (Alias Barren) Lovel’s Charge At The Assizes At Exon, April 5, 1710 04/12/2010 5.5 57 0
23 The Garden Plot 04/12/2010 5.6 47 0
24 The Grand Question Debated: Whether Hamilton’s Bawn Should Be Turned Into A Barrack Or Malt-House 04/12/2010 5.5 41 0
25 The Gulf of All Human Possessions 04/12/2010 5.5 53 0
26 The Lady's Dressing Room 04/12/2010 5.2 34 1
27 Stella At Wood Park, A House Of Charles Ford, Esq., Near Dublin 04/12/2010 5.5 35 0
28 Stella’s Birth-Day. 1724-5 04/12/2010 4.8 56 0
29 Stella’s Birth-Day.1719-20 04/12/2010 5.8 62 0
30 Stella’s Birth-Day: A Great Bottle Of Wine, Long Buried, Being That Day Dug Up. 1722-3 04/12/2010 5.3 43 0
31 Stella's Birthday March 13, 1719 04/12/2010 5.5 20 0
32 Stella's Birthday March 13, 1727 04/12/2010 5.7 47 0
33 Stella's Birthday, March 13, 1726 04/12/2010 5.5 55 0
34 The Author Upon Himself 04/12/2010 5.5 31 0
35 Robin And Harry 04/12/2010 5.5 35 0
36 Sid Hamet’s Rod 04/12/2010 5.5 40 0
37 Riddles By Dr. Swift And His Friends 04/12/2010 5.5 39 0
38 Oysters 04/12/2010 5.4 51 0
39 Parody On The Recorder’s Speech To His Grace The Duke Of Ormond, 4th July, 1711 04/12/2010 5.6 58 0
40 Peace And Dunkirk 04/12/2010 5.2 38 0
41 Phillis, Or, the Progress of Love 04/12/2010 5.4 29 0
42 On Stephen Duck, the Thresher, and Favourite Poet. A Quibbl 04/12/2010 5.4 45 0
43 On The Five Senses 04/12/2010 5.3 59 0
44 On The Gallows 04/12/2010 5.6 77 0
45 On The Moon 04/12/2010 5.5 39 1
46 On The Posteriors 04/12/2010 5.4 47 0
47 On The Vowels 04/12/2010 5.7 48 0
48 On The World 04/12/2010 5.5 51 0
49 On Time 04/12/2010 5.3 51 0
50 On Gold 04/12/2010 5.2 36 0
51 On Himself 04/12/2010 5.6 50 0
52 On Ink 04/12/2010 5.6 48 0
53 On Snow 04/12/2010 5.5 37 0
54 On A Corkscrew 04/12/2010 5.6 33 0
55 On A Horn 04/12/2010 5.0 37 0
56 On A Pair Of Dice 04/12/2010 5.3 34 0
57 On A Pen 04/12/2010 5.3 34 0
58 On A Shadow In A Glass 04/12/2010 5.0 24 0
59 On A Very Old Glass At Market-Hill 04/12/2010 5.4 39 0
60 On An Ill-Managed House 04/12/2010 5.2 33 0
61 On Cutting Down The Thorn At Market-Hill 04/12/2010 5.8 22 0
62 Market Women’s Cries 04/12/2010 5.0 52 0
63 Mr. William Crowe’s Address To Her Majesty, Turned Into Metre 04/12/2010 5.4 36 0
64 Mrs Frances Haris's Petition 04/12/2010 5.3 34 0
65 Mutton 04/12/2010 5.1 42 0
66 My Lady’s Lamantation And Complaint Against The Dean 04/12/2010 5.0 37 0
67 On A Candle 04/12/2010 5.1 37 0
68 On A Cannon 04/12/2010 5.6 34 0
69 On A Circle 04/12/2010 5.2 24 1
70 Epitaph In Berkeley Church-Yard, Gloucestershire 04/12/2010 5.5 10 0
71 Fontinella To Florinda 04/12/2010 5.5 33 0
72 Horace, Epist. I, VII Imitation Of Horace To Lord Oxford 04/12/2010 5.5 39 0
73 Jack Frenchman’s Lamentation 04/12/2010 5.5 32 0
74 Lady Acheson Weary Of The Dean 04/12/2010 5.3 43 0
75 Lines Written Extempore On Mr. Harley’s Being Stabbed, And Addressed To His Physician, 1710-11 04/12/2010 5.4 33 0
76 Louisa To Strephon 04/12/2010 5.7 32 0
77 Daphne 04/12/2010 5.7 59 0
78 Dean Swift At Sir Arthur Acheson’s In The North Of Ireland 04/12/2010 5.2 74 0
79 Death And Daphne 04/12/2010 5.3 80 0
80 Dingley And Brent 04/12/2010 5.3 73 0
81 Elegy On Partridge 04/12/2010 5.9 84 0
82 An Excellent New Song Being The Intended Speech Of A Famous Orator Against Peace 04/12/2010 5.5 74 0
83 Answered Extempore By Dr. Swift 04/12/2010 5.8 63 0
84 Atlas; Or The Minister Of State 04/12/2010 5.7 65 1
85 Ballad 04/12/2010 5.0 77 0
86 Baucis And Philemon 04/12/2010 5.3 81 0
87 Bec’s Birth-Day Nov. 8, 1726 04/12/2010 5.4 66 0
88 Cadenus And Vanessa 04/12/2010 5.0 66 1
89 Corinna 04/12/2010 5.5 67 0
90 A Pastoral Dialogue 04/12/2010 5.5 30 0
91 A Receipt To Restore Stella’s Youth. 1724-5 04/12/2010 5.0 67 0
92 A Riddle 04/12/2010 5.4 78 2
93 An Echo 04/12/2010 4.8 74 2
94 A New Year’s Gift For Bec 04/12/2010 5.3 86 0
95 A Panegyric Of The Dean In The Person Of A Lady In The North 04/12/2010 5.2 72 0
96 The Beasts' Confession 01/01/2004 5.5 23 8
97 On Stephen Duck, the Thresher, and Favourite Poet. A Quibbl 01/01/2004 5.5 20 7
98 Stella's Birthday March 13, 1727 01/01/2004 5.7 57 10
99 Stella's Birthday March 13, 1719 01/01/2004 5.5 45 8
100 Advice to the Grub Street Verse-writers 01/01/2004 5.0 73 7
101 A Satirical Elegy 01/13/2003 5.9 43 16
102 A Beautiful Young Nymph Going To Bed 01/13/2003 6.1 91 60
103 A Description of the Morning 01/03/2003 5.6 82 21
104 A Maypole 01/03/2003 5.6 101 11
105 Elegy Upon Tiger 01/03/2003 5.7 43 14
106 To Stella, Who Collected and Transcribed His Poems 01/03/2003 5.8 42 13
107 Mrs Frances Haris's Petition 01/03/2003 5.3 13 11
108 The Progress of Poetry 01/03/2003 5.7 42 13
109 On Stella's Birth-Day, 1719 01/03/2003 5.5 44 14
110 Phillis, Or, the Progress of Love 01/03/2003 5.9 62 13
111 A Description of a City Shower 01/03/2003 5.4 74 20
112 Oysters 01/03/2003 6.0 27 11
113 Verses on the Death of Doctor Swift 01/03/2003 5.9 42 16
114 The Place of the Damned 01/03/2003 5.9 55 13
115 A Satirical Elegy on the Death of a Late Famous General 01/03/2003 5.6 76 16
[Hata Bildir]